This is the latest recevied weather packets stored in our database for station/object WW5JC. If no packets are shown the sender has not sent any weather packets the latest 10 day(s).
| Time | Temp. | Humidity | Pressure | Rain* | Wind** | Luminosity | Snow |
|---|---|---|---|---|---|---|---|
| 1777747837 | 22.22° C | 36% | 1022.6 hPa | 0 mm | - | 722 W/m² | - |
| 1777747532 | 21.67° C | 42% | 1022.7 hPa | 0 mm | - | 722 W/m² | - |
| 1777747228 | 22.22° C | 38% | 1022.9 hPa | 0 mm | - | 710 W/m² | - |
| 1777746925 | 21.67° C | 39% | 1022.9 hPa | 0 mm | - | 717 W/m² | - |
| 1777746621 | 21.67° C | 39% | 1022.9 hPa | 0 mm | - | 853 W/m² | - |
| 1777746316 | 22.22° C | 40% | 1022.8 hPa | 0 mm | - | 638 W/m² | - |
| 1777746012 | 21.67° C | 38% | 1022.8 hPa | 0 mm | - | 567 W/m² | - |
| 1777745710 | 21.67° C | 41% | 1023.1 hPa | 0 mm | - | 394 W/m² | - |
| 1777745409 | 21.67° C | 40% | 1022.9 hPa | 0 mm | - | 364 W/m² | - |
| 1777745105 | 22.22° C | 37% | 1023.2 hPa | 0 mm | - | 375 W/m² | - |
| 1777744802 | 21.67° C | 41% | 1023.2 hPa | 0 mm | - | 771 W/m² | - |
| 1777744496 | 22.22° C | 38% | 1023.2 hPa | 0 mm | - | 732 W/m² | - |
| 1777744193 | 21.11° C | 38% | 1023.5 hPa | 0 mm | - | 723 W/m² | - |
| 1777743890 | 22.22° C | 38% | 1023.3 hPa | 0 mm | - | 717 W/m² | - |
| 1777743586 | 22.22° C | 43% | 1023.4 hPa | 0 mm | - | 715 W/m² | - |
| 1777743284 | 21.67° C | 42% | 1023.2 hPa | 0 mm | - | 711 W/m² | - |
| 1777742982 | 21.11° C | 38% | 1023.3 hPa | 0 mm | - | 710 W/m² | - |
| 1777742678 | 21.67° C | 40% | 1023.5 hPa | 0 mm | - | 706 W/m² | - |
| 1777742374 | 20.56° C | 42% | 1023.3 hPa | 0 mm | - | 702 W/m² | - |
| 1777742070 | 21.11° C | 38% | 1023.6 hPa | 0 mm | - | 697 W/m² | - |
| 1777741768 | 21.11° C | 39% | 1023.6 hPa | 0 mm | - | 693 W/m² | - |
| 1777741464 | 21.67° C | 41% | 1023.6 hPa | 0 mm | - | 686 W/m² | - |
| 1777741160 | 21.11° C | 43% | 1023.8 hPa | 0 mm | - | 680 W/m² | - |
| 1777740858 | 20.56° C | 41% | 1023.5 hPa | 0 mm | - | 674 W/m² | - |
| 1777740554 | 20.56° C | 39% | 1023.8 hPa | 0 mm | - | 667 W/m² | - |
* Rain latest hour (hover to see other rain measurements)
** Current wind speed in m/s (hover to see current wind gust speed)